Preview of NWS' New Version of Forecast
This preview is not operational and should not be used for support decisions.

Regional Weather Roundup (RWR)

Issued by National Weather Service (NWS)

                            
000
ASUS43 KLMK 231602
RWRKY 
KENTUCKY REGIONAL WEATHER ROUNDUP
NATIONAL WEATHER SERVICE LOUISVILLE KY
1200 PM EDT TUE JUL 23 2019

NOTE "FAIR" INDICATES FEW OR NO CLOUDS BELOW 12,000 FEET
WITH NO SIGNIFICANT WEATHER AND/OR OBSTRUCTIONS TO VISIBILITY.

KYZ001>023-026-027-061>063-070>075-231700-
WESTERN AND SOUTH CENTRAL KENTUCKY
  
CITY           SKY/WX    TMP DP  RH WIND       PRES   REMARKS
PADUCAH        FAIR      75  60  59 NE14      30.11S                  
HENDERSON      FAIR      73  62  68 N7        30.12R                  
OWENSBORO      FAIR      75  63  66 N8        30.10S                  
HOPKINSVILLE   FAIR      74  62  66 N13       30.07S                  
BOWLING GREEN  FAIR      75  62  64 N7        30.07R                  
GLASGOW        PTSUNNY   75  63  66 N7        30.05S                  
$$

KYZ024-025-028>034-038-045-046-053-231700-
NORTH CENTRAL KENTUCKY
  
CITY           SKY/WX    TMP DP  RH WIND       PRES   REMARKS
LOUISVILLE/SDF FAIR      78  58  49 N13       30.07S                  
LOUISVILLE/LOU FAIR      77  56  48 N8G18     30.08R                  
FORT KNOX      PTSUNNY   74  60  60 N10       30.09R                  
$$

KYZ035>037-039>044-047>052-055>060-089>105-231700-
NORTHEAST KENTUCKY
  
CITY           SKY/WX    TMP DP  RH WIND       PRES   REMARKS
LEXINGTON      FAIR      76  48  37 N14G25    30.07R                  
COVINGTON      FAIR      75  48  38 N15G22    30.07S                  
FRANKFORT      FAIR      78  51  38 NE14G20   30.07R                  
$$

KYZ054-064>069-076>088-106>120-231700-
SOUTHEAST KENTUCKY
  
CITY           SKY/WX    TMP DP  RH WIND       PRES   REMARKS
JACKSON        FAIR      71  63  75 VRB3      30.04S                  
LONDON         PTSUNNY   72  65  78 NE9       30.03S                  
SOMERSET       NOT AVBL                                               
MIDDLESBORO    CLOUDY    69  65  84 NW6       30.02S                  
MONTICELLO     PTSUNNY   74  66  76 N14G28    30.05S                  
$$